Home   Weather   Little Rock   Past weeks

Flag for USA Past Weather in Little Rock, Arkansas, USA — Yesterday and Last 2 Weeks

Now
40 °F

Overcast.


Feels Like: 33 °F
Forecast: 34 / 51 °F
Wind: 10 mph from Southeast

Location: Adams Field

Current Time: Dec 10, 2016 at 10:26:05 pm

Latest Report: Dec 10, 2016 at 9:53 pm


Visibility: 10 mi

Pressure: 30.30 "Hg

Humidity: 63%

Dew Point: 28 °F

Location of Little RockLocation

Past Weather in Little Rock — Graph

°F

Little Rock Temperature Yesterday

Maximum temperature yesterday: 38 °F (at 1:53 pm)
Minimum temperature yesterday: 20 °F (at 6:53 am)
Average temperature yesterday: 29 °F

High & Low Weather Summary for the Past Weeks

 TemperatureHumidityPressure
High63 °F (Nov 29, 2:53 pm)100% (Nov 25, 8:53 pm)30.74 "Hg (Nov 25, 8:53 pm)
Low20 °F (Dec 9, 6:53 am)19% (Dec 1, 1:53 pm)29.40 "Hg (Nov 28, 3:53 pm)
Average43 °F80%30.13 "Hg
* Reported Nov 25 8:53 pm — Dec 10 8:53 pm, Little Rock, Weather by CustomWeather, © 2016

Note: Actual official high and low records may vary slightly from our data, if they occured in-between our weather recording intervals... More about our weather records

Advertising

Little Rock Weather History for the Previous 24 Hours

Scroll right to see more
 ConditionsComfort  
Time TempWeatherWind HumidityBarometerVisibility
8:53 pm
Sat, Dec 10
41 °FOvercast.13 mph60%30.32 "Hg10 mi
7:53 pm41 °FOvercast.12 mph58%30.34 "Hg10 mi
6:53 pm40 °FOvercast.9 mph60%30.37 "Hg10 mi
5:53 pm38 °FOvercast.6 mph65%30.37 "Hg10 mi
4:53 pm41 °FPartly sunny.8 mph55%30.39 "Hg10 mi
3:53 pm43 °FBroken clouds.9 mph47%30.40 "Hg10 mi
2:53 pm42 °FBroken clouds.7 mph47%30.41 "Hg10 mi
1:53 pm43 °FBroken clouds.10 mph40%30.45 "Hg10 mi
12:53 pm41 °FScattered clouds.8 mph47%30.49 "Hg10 mi
11:53 am38 °FPartly sunny.8 mph55%30.53 "Hg10 mi
10:53 am35 °FPartly sunny.7 mph67%30.58 "Hg10 mi
9:53 am32 °FPartly sunny.7 mph75%30.60 "Hg10 mi
8:53 am31 °FOvercast.6 mph79%30.59 "Hg10 mi
7:53 am29 °FOvercast.3 mph89%30.59 "Hg10 mi
6:53 am28 °FOvercast.3 mph96%30.61 "Hg10 mi
5:53 am28 °FOvercast.5 mph96%30.61 "Hg10 mi
4:53 am28 °FOvercast.No wind96%30.60 "Hg10 mi
3:53 am27 °FPassing clouds.No wind96%30.60 "Hg10 mi
2:53 am23 °FPassing clouds.No wind96%30.60 "Hg10 mi
1:53 am25 °FPassing clouds.No wind92%30.61 "Hg10 mi
12:53 am25 °FPassing clouds.No wind92%30.60 "Hg10 mi
11:53 pm
Fri, Dec 9
25 °FPassing clouds.No wind92%30.61 "Hg10 mi
10:53 pm26 °FPassing clouds.No wind88%30.64 "Hg10 mi
Weather by CustomWeather, © 2016

See weather overviewHow to use our weather pages